Tracking 28081 objects as of 26-Sep-2023
HD Live streaming from Space Station
objects crossing your sky now

LUCH DEB

Track LUCH DEB now!


NORAD ID: 44582
Int'l Code: 1994-082G
Perigee: 35,589.9 km
Apogee: 35,767.4 km
Inclination: 14.7 °
Period: 1,430.2 minutes
Semi major axis: 42049 km
RCS: Unknown
Launch date: December 16, 1994
Source: Commonwealth of Independent States (former USSR) (CIS)
Launch site: TYURATAM MISSILE AND SPACE COMPLEX (TTMTR)

Note: This is SATELLITE DEBRIS
Your satellite tracking list
Your tracking list is empty




NASA's NSSDC Master Catalog

Two Line Element Set (TLE):
1 44582U 94082G   23267.61214726  .00000012  00000-0  00000+0 0  9997
2 44582  14.6945   1.8272 0021096  94.8633 296.0312  1.00683774 36205
Source of the keplerian elements: AFSPC